SCP
0 0 0 0 0 0 0 0 0 0 0 0 0 0 0 0 0 0 0 0 0 0 0 0 0 0 0 0 0 0 0 0 0 0 0 0 0 0 0 0 0 0 0
0 0 0 0 0 0 0 0 0 0 0 0 0 0 0 0 0 0 0 0 0 0 0 0 0 0 0 0 0 0 0 0 0 0 0 0 0 0 0 0 0 0 0
0 0 0 0 0 0 0 0 0 0 0 0 0 0 0 0 0 0 0 0 0 0 0 0 0 0 0 0 0 0 0 0 0 0 0 0 0 0 0 0 0 0 0
0 0 0 0 0 0 0 0 0 0 0 0 0 0 0 0 0 0 0 0 0 0 0 0 0 0 0 0 0 0 0 0 0 0 0 0 0 0 0 0 0 0 0
0 0 0 0 0 0 0 0 0 0 0 0 0 0 0 0 0 0 0 0 0 0 0 0 0 0 0 0 0 0 0 0 0 0 0 0 0 0 0 0 0 0 0
0 0 0 0 0 0 0 0 0 0 0 0 0 0 0 0 0 0 0 0 0 0 0 0 0 0 0 0 0 0 0 0 0 0 0 0 0 0 0 0 0 0 0
0 0 0 0 0 0 0 0 0 0 0 0 0 0 0 0 0 0 0 0 0 0 0 0 0 0 0 0 0 0 0 0 0 0 0 0 0 0 0 0 0 0 0
0 0 0 0 0 0 0 0 0 0 0 0 0 0 0 0 0 0 0 0 0 0 0 0 0 0 0 0 0 0 0 0 0 0 0 0 0 0 0 0 0 0 0
0 0 0 0 0 0 0 0 0 0 0 0 0 0 0 0 0 0 0 0 0 0 0 0 0 0 0 0 0 0 0 0 0 0 0 0 0 0 0 0 0 0 0
0 0 0 0 0 0 0 0 0 0 0 0 0 0 0 0 0 0 0 0 0 0 0 0 0 0 0 0 0 0 0 0 0 0 0 0 0 0 0 0 0 0 0
0 0 0 0 0 0 0 0 0 0 0 0 0 0 0 0 0 0 0 0 0 0 0 0 0 0 0 0 0 0 0 0 0 0 0 0 0 0 0 0 0 0 0
0 0 0 0 0 0 0 0 0 0 0 0 0 0 0 0 0 0 0 0 0 0 0 0 0 0 0 0 0 0 0 0 0 0 0 0 0 0 0 0 0 0 0
0 0 0 0 0 0 0 0 0 0 0 0 0 0 0 0 0 0 0 0 0 0 0 0 0 0 0 0 0 0 0 0 0 0 0 0 0 0 0 0 0 0 0
0 0 0 0 0 0 0 0 0 0 0 0 0 0 0 0 0 0 0 0 0 0 0 0 0 0 0 0 0 0 0 0 0 0 0 0 0 0 0 0 0 0 0
0 0 0 0 0 0 0 0 0 0 0 0 0 0 0 0 0 0 0 0 0 0 0 0 0 0 0 0 0 0 0 0 0 0 0 0 0 0 0 0 0 0 0
0 0 0 0 0 0 0 0 0 0 0 0 0 0 0 0 0 0 0 0 0 0 0 0 0 0 0 0 0 0 0 0 0 0 0 0 0 0 0 0 0 0 0
0 0 0 0 0 0 0 0 0 0 0 0 0 0 0 0 0 0 0 0 0 0 0 0 0 0 0 0 0 0 0 0 0 0 0 0 0 0 0 0 0 0 0
0 0 0 0 0 0 0 0 0 0 0 0 0 0 0 0 0 0 0 0 0 0 0 0 0 0 -0 0 0 0 0 0 0 0 0 0 0 0 0 0 0 0 0
0 0 0 0 0 0 0 0 0 0 0 0 0 0 0 0 0 0 0 0 0 0 0 0 0 0 0 0 0 0 0 0 0 0 0 0 0 0 0 0 0 0 0
0 0 0 0 0 0 0 0 0 0 0 0 0 0 0 0 0 0 0 0 0 0 0 0 0 0 0 0 0 0 0 0 0 0 0 0 0 0 0 0 0 0 0
0 0 0 0 0 0 0 0 0 0 0 0 0 0 0 0 0 0 0 0 0 0 0 0 0 0 0 0 0 0 0 0 0 0 0 0 0 0 0 0 0 0 0
0 0 0 0 0 0 0 0 0 0 0 0 0 0 0 0 0 0 0 0 0 0 0 0 0 0 0 0 0 0 0 0 0 0 0 0 0 0 0 0 0 0 0
0 0 0 0 0 0 0 0 0 0 0 0 0 0 0 0 0 0 0 0 0 0 0 0 0 0 0 0 0 0 0 0 0 0 0 0 0 0 0 0 0 0 0
0 0 0 0 0 0 0 0 0 0 0 0 0 0 0 0 0 0 0 0 0 0 0 0 0 0 0 0 0 0 0 0 0 0 0 0 0 0 0 0 0 0 0
0 0 0 0 0 0 0 0 0 0 0 0 0 0 0 0 0 0 0 0 0 0 0 0 0 0 0 0 0 0 0 0 0 0 0 0 0 0 0 0 0 0 0
0 0 0 0 0 0 0 0 0 0 0 0 0 0 0 0 0 0 0 0 0 0 0 0 0 0 0 0 0 0 0 0 0 0 0 0 0 0 0 0 0 0 0
Wind_Speed
1 1 1 1 1 1 1 0 0 1 0 0 0 0 0 0 0 0 1 3 4 3 1 1 2 2 2 3 2 2 2 2 2 2 2 2 1 2 2 2 2 2 2
1 1 1 1 1 1 1 1 1 0 0 1 1 1 1 1 1 1 0 1 2 3 3 2 1 1 1 1 2 2 2 1 0 1 1 1 2 1 1 2 2 1 1
1 1 1 1 1 1 1 1 1 1 0 1 1 2 2 2 2 1 1 1 1 1 2 2 2 2 2 0 0 0 0 1 1 1 1 1 1 1 0 1 1 1 1
2 2 2 1 1 1 1 1 1 1 1 1 2 2 2 2 2 2 2 1 1 1 0 2 3 2 2 2 1 0 0 0 1 0 1 2 2 2 1 2 2 2 1
2 2 2 2 1 1 1 1 1 1 1 2 2 2 2 3 2 3 3 2 2 2 2 1 1 2 2 2 2 1 1 1 1 1 2 2 2 2 3 3 3 3 3
3 3 2 3 2 2 2 2 2 2 2 2 2 3 3 3 3 3 3 3 3 3 3 2 2 1 1 2 2 2 2 2 2 3 3 3 4 4 4 4 4 5 5
3 3 3 3 3 2 2 3 2 2 2 2 2 2 3 3 4 3 3 3 3 3 3 3 2 1 1 2 2 3 3 3 4 4 4 5 5 5 5 6 5 6 6
3 3 3 3 3 3 3 3 3 3 2 2 2 2 2 3 3 3 3 3 4 3 4 3 3 2 2 2 2 3 3 4 5 5 5 6 6 6 6 7 6 7 7
4 4 4 4 4 4 4 4 4 4 3 3 3 3 2 2 1 3 3 3 3 3 4 3 4 3 3 3 3 3 4 5 6 6 7 7 7 7 8 8 8 8 8
4 4 4 4 4 4 4 5 5 4 5 4 3 4 4 2 3 2 3 4 4 4 5 4 4 4 4 4 3 4 4 5 7 8 8 9 9 9 9 9 10 10 9
4 4 4 4 5 4 5 5 5 5 5 5 5 4 4 4 5 4 4 4 4 4 4 5 5 5 5 5 4 4 5 6 7 9 10 10 11 10 11 11 11 11 10
3 4 5 5 5 5 5 5 5 6 6 7 6 6 5 5 5 5 5 5 5 4 5 5 5 5 4 5 5 5 6 7 8 9 10 11 11 11 11 11 11 10 10
4 4 5 5 5 6 6 6 6 7 7 8 7 6 6 6 5 5 6 6 6 5 5 5 5 5 5 4 4 6 7 8 9 10 11 12 11 10 11 11 11 12 12
4 5 5 6 7 6 6 6 6 7 7 7 8 8 7 6 6 6 6 5 6 6 6 6 4 5 4 4 5 6 7 8 10 11 12 12 12 11 11 11 12 12 12
4 5 6 7 7 7 7 7 6 7 7 7 7 8 7 6 6 6 6 6 7 7 7 6 4 4 4 5 5 6 8 9 10 12 12 12 12 11 11 11 12 12 12
5 5 6 6 7 6 7 7 7 7 7 7 6 7 7 6 6 6 6 7 8 8 8 6 5 5 6 6 7 8 8 10 11 12 12 12 12 12 12 12 12 12 12
5 6 6 6 6 7 6 7 7 7 8 8 7 8 8 7 7 6 7 7 8 8 10 8 6 7 8 8 7 7 8 8 7 10 12 12 12 12 12 12 12 12 12
5 5 5 6 6 6 6 7 7 7 8 8 8 8 8 7 8 7 7 8 8 8 9 10 8 7 9 8 8 8 7 6 7 9 11 12 11 12 12 12 12 11 12
4 4 4 5 5 6 6 6 7 7 8 7 7 8 8 8 8 7 8 8 7 7 8 8 9 7 6 6 7 7 8 7 7 7 9 10 11 11 11 12 11 11 12
4 4 4 5 5 5 6 5 6 7 7 7 7 8 8 9 8 8 7 8 7 8 8 8 8 7 6 6 6 6 6 6 6 6 7 8 9 10 11 11 11 11 12
4 4 4 5 5 5 5 5 6 7 7 7 7 7 7 8 9 8 7 8 8 7 7 7 8 7 7 6 6 5 7 6 7 6 6 6 6 6 7 9 10 10 11
4 4 4 5 5 4 5 6 6 6 6 6 7 7 6 7 8 10 12 12 11 9 8 8 8 8 9 8 7 6 6 7 7 4 5 7 6 6 6 6 8 9 10
4 4 4 4 5 5 6 7 7 6 6 6 6 6 6 6 8 7 9 11 11 12 13 10 10 11 10 9 9 9 8 8 9 6 5 8 6 7 6 6 8 10 10
4 4 4 5 5 5 6 6 7 6 5 6 6 7 7 7 7 8 8 8 9 10 10 10 10 11 10 10 9 10 10 10 9 7 7 8 6 7 6 6 8 9 10
4 4 5 5 5 5 6 7 7 5 5 6 6 7 7 8 8 10 9 9 10 9 9 11 12 13 14 14 12 8 8 8 8 7 6 7 6 6 6 6 6 8 9
4 4 5 5 5 5 6 7 7 4 5 5 5 6 8 8 9 10 9 9 10 9 8 8 9 11 11 11 13 11 9 9 8 7 5 5 5 4 5 4 4 5 6
Wind_Direction
324 339 338 343 340 342 343 343 83 69 36 346 352 344 1 343 327 6 59 28 7 11 53 79 70 62 88 91 96 106 105 97 84 75 58 46 70 89 123 118 103 90 79
294 295 302 303 320 328 322 299 274 233 290 296 303 305 298 302 282 277 289 80 30 15 19 40 34 24 65 109 96 86 82 82 70 32 25 32 39 51 118 122 112 105 86
268 270 271 269 291 300 303 287 274 241 264 279 272 273 277 281 267 262 250 243 199 47 11 2 2 348 341 343 138 125 45 39 50 49 1 340 357 12 250 164 132 130 88
257 254 255 259 274 277 280 274 273 263 247 270 278 275 268 268 264 258 244 235 231 229 230 354 352 337 329 315 286 280 244 344 352 337 341 333 315 297 286 243 234 228 230
244 244 242 241 236 252 262 267 256 271 264 268 275 276 264 253 253 248 238 230 226 235 237 203 318 344 325 310 280 269 279 284 298 286 287 301 299 290 275 271 254 244 238
245 242 237 227 224 230 242 256 257 257 267 263 261 265 263 251 244 241 240 234 230 230 236 233 221 213 313 313 281 263 268 277 277 276 277 274 281 278 270 272 266 254 244
250 249 243 224 223 230 241 250 258 246 258 266 252 255 246 233 235 235 237 240 233 233 233 236 238 250 246 283 280 273 265 266 272 274 274 271 268 271 269 266 266 260 255
251 252 251 239 228 232 237 237 250 249 249 250 257 252 244 219 207 225 232 240 243 236 234 234 235 248 261 256 258 263 270 264 262 266 270 272 268 263 265 266 265 265 259
246 244 243 248 239 231 233 233 234 245 240 237 246 251 248 249 264 216 228 232 237 235 235 238 241 249 255 258 257 244 266 271 268 264 265 267 271 268 262 263 262 265 267
249 242 241 245 246 237 234 235 231 242 239 237 233 244 258 276 256 250 222 228 241 246 243 242 248 247 252 249 262 271 265 269 269 268 265 265 268 272 271 265 262 263 267
251 250 248 247 247 245 240 239 237 239 236 237 236 236 242 244 243 249 257 249 244 243 251 250 246 245 250 248 250 267 269 265 265 268 268 265 266 268 271 269 266 267 265
255 250 249 248 249 249 244 241 239 240 241 237 237 236 237 236 232 237 251 260 264 261 260 256 248 242 244 248 255 284 277 265 266 269 270 268 267 268 271 272 269 268 268
260 257 252 249 250 250 249 244 242 240 241 237 234 238 239 241 248 248 251 259 266 268 261 251 245 244 242 248 256 274 273 267 265 269 272 271 270 271 272 271 271 270 270
262 263 254 250 250 251 250 245 245 241 243 240 238 237 239 239 239 241 244 252 264 262 254 253 249 243 246 253 267 273 265 269 266 266 270 273 271 269 270 270 270 271 272
265 260 254 249 249 249 249 246 244 242 245 243 242 240 238 240 240 242 239 237 248 260 260 254 250 240 250 257 270 266 268 268 271 266 266 268 267 266 266 267 269 269 269
266 265 259 253 251 249 248 244 246 243 246 245 242 242 242 242 240 240 239 241 243 252 261 258 264 266 267 268 270 269 271 275 266 267 263 264 263 260 260 263 266 266 265
270 265 261 255 250 249 248 245 244 243 246 247 243 242 244 244 242 241 243 243 241 244 255 264 265 269 269 267 270 269 269 270 266 265 267 262 260 258 258 260 262 262 262
277 271 265 258 252 250 247 248 246 245 246 245 246 246 247 245 244 246 246 246 244 243 248 260 264 265 268 269 271 272 273 273 271 268 268 266 259 258 258 257 257 260 261
284 278 267 263 258 255 252 253 250 247 247 248 248 247 248 245 247 246 247 250 252 251 247 254 263 267 270 268 273 273 273 271 274 272 270 264 255 255 257 257 257 259 261
289 281 273 269 263 258 255 256 257 251 253 254 252 251 250 247 248 248 249 250 252 255 252 252 258 264 266 268 267 269 273 271 274 278 274 267 257 255 256 258 257 258 258
290 286 281 275 271 263 254 253 258 255 255 258 258 255 254 255 258 257 254 253 250 250 253 252 256 262 262 262 260 266 269 277 275 268 271 267 258 253 252 253 253 253 256
289 288 283 278 275 271 276 270 269 262 260 260 261 262 261 258 256 257 259 262 260 256 256 255 256 257 260 263 264 263 268 272 273 267 275 275 265 256 253 251 251 252 253
293 290 286 286 278 277 280 278 275 268 263 265 265 264 262 261 261 259 262 262 262 261 259 259 260 259 262 262 262 261 261 264 267 275 274 272 268 261 256 256 256 252 253
294 291 289 285 276 278 285 287 284 272 267 266 266 265 265 265 263 264 265 263 262 260 259 256 258 261 262 263 260 260 265 268 271 267 259 269 270 268 269 260 255 252 254
297 294 290 289 283 281 285 288 284 276 270 271 270 268 267 265 269 268 265 265 265 265 265 259 261 266 267 263 261 260 257 258 265 265 256 260 270 275 274 266 254 248 251
294 297 295 294 290 283 287 288 286 274 274 276 277 273 269 269 273 273 265 264 264 267 268 269 265 264 263 261 256 249 250 252 261 265 250 248 263 276 278 264 259 259 255